ECMWFNIL_250_rhum_135.txt.gz
RH
101 104 104 102 100 100 101 104 104 104 105 105 103 101 98 96 93 88 85 85 84 82 81 79 77 76 76 76 75 74 74 74 74 74 74 74 76 78 79 80 80 79
94 96 100 105 106 104 101 99 98 99 102 105 107 106 105 104 103 100 97 94 93 93 93 91 90 88 88 88 88 87 87 87 87 87 85 83 83 83 83 84 83 80
95 93 95 99 102 103 102 99 96 93 93 96 100 103 104 104 103 104 105 102 99 100 101 100 101 100 99 99 100 100 102 103 103 102 98 95 94 93 93 92 89 86
102 100 98 98 98 99 99 99 100 99 98 96 97 98 99 100 101 102 105 106 103 100 99 98 99 101 102 103 103 104 107 110 112 112 109 106 104 102 99 97 94 93
106 107 108 107 105 104 101 98 97 99 101 102 99 97 94 94 95 96 99 102 102 100 99 96 95 95 96 98 99 100 103 106 109 110 108 107 107 106 103 100 98 98
77 83 89 93 97 102 105 104 102 101 102 102 100 96 92 90 89 89 91 92 91 91 91 90 91 91 92 92 93 93 95 97 100 103 104 104 105 105 105 103 102 102
39 43 48 53 58 66 74 81 88 94 97 103 107 103 100 98 94 90 90 89 85 81 78 76 77 79 81 83 85 87 88 88 89 91 95 98 101 103 103 103 103 103
28 28 29 31 32 35 39 43 50 57 64 75 87 94 100 107 106 102 101 99 95 90 84 79 75 73 71 70 71 74 77 79 80 80 82 86 89 93 95 96 96 97
29 29 29 29 29 29 30 30 31 33 35 39 46 54 65 78 89 96 102 106 107 107 105 100 94 87 82 76 71 67 66 67 69 69 70 73 76 80 84 86 86 87
27 28 29 30 31 31 31 31 30 30 30 30 31 33 35 40 47 57 68 78 88 97 105 109 108 102 97 92 86 79 74 71 68 65 64 64 66 69 72 74 75 77
25 24 25 26 27 29 30 31 31 31 31 31 31 31 32 32 33 35 38 44 50 58 67 77 84 86 87 86 84 82 81 80 79 77 73 69 68 67 67 66 66 67
26 25 25 25 25 26 27 27 28 29 30 31 31 31 31 32 32 33 34 35 37 39 42 46 51 55 59 61 62 63 64 66 69 71 71 70 70 69 68 67 64 64
31 30 29 28 27 26 26 26 26 27 27 28 29 30 31 32 32 33 34 34 36 37 38 39 41 42 44 46 47 48 48 49 50 52 52 53 55 56 58 59 60 60
36 35 34 32 31 29 28 27 26 26 26 26 27 28 28 30 31 32 33 34 35 36 37 38 39 40 41 42 42 42 43 43 43 44 44 43 43 44 45 47 49 50
32 31 31 30 30 29 28 27 26 25 24 24 24 24 25 26 27 29 31 32 33 34 36 37 38 39 40 41 41 41 41 41 41 42 42 42 42 42 42 42 43 44
24 24 24 23 23 23 23 23 23 23 23 22 21 21 21 21 22 24 25 27 29 30 31 32 34 35 37 38 40 41 41 41 41 41 40 40 40 39 40 40 40 40
23 21 21 20 19 19 19 19 19 19 20 20 19 19 19 18 18 19 20 21 23 25 26 28 29 30 32 34 35 37 38 39 40 41 41 40 39 39 39 39 39 39
21 20 19 18 17 16 16 16 16 16 16 16 17 17 17 17 17 18 18 19 20 21 22 23 24 25 26 27 28 30 31 32 34 36 37 37 37 37 37 38 39 39
15 15 15 15 15 15 14 14 13 13 13 13 14 14 14 15 15 15 15 16 16 17 17 17 18 18 19 19 20 21 22 23 25 26 28 29 29 30 31 31 32 33
12 12 12 12 13 13 13 13 12 12 11 11 11 11 11 11 11 12 12 12 12 13 13 13 13 13 14 14 15 15 16 17 18 19 20 20 21 22 23 24 25 25
11 12 12 12 12 12 12 12 12 12 11 11 10 10 9 9 9 9 9 10 11 11 11 12 12 12 13 13 13 14 14 15 16 16 16 16 16 16 17 17 17 17
11 11 12 12 12 12 12 12 12 11 11 10 10 9 9 9 9 9 9 9 10 10 11 12 12 13 14 14 14 14 13 14 14 13 12 12 11 11 11 11 11 10
10 10 11 11 11 11 11 11 11 10 10 10 10 9 9 9 9 9 10 11 11 12 13 13 12 12 12 12 11 10 10 10 10 9 9 9 9 8 8 8 8 8
9 9 9 9 9 10 10 10 10 10 10 10 10 10 10 10 11 12 13 13 14 14 13 11 10 9 8 8 7 7 8 8 8 8 8 7 8 7 7 8 7 7
8 8 9 9 9 9 9 9 9 10 10 10 10 11 11 12 13 13 13 13 12 11 9 8 8 7 7 7 7 7 7 6 7 7 6 6 6 6 7 7 6 6
8 8 9 9 9 9 9 10 10 10 11 11 12 13 13 14 14 13 11 10 9 8 8 7 7 7 7 7 6 6 6 6 6 6 6 6 6 6 6 6 6 6

ECMWFNIL_250_rhum_138.txt.gz
RH
92 96 99 98 98 98 102 106 108 108 106 102 99 96 96 97 97 97 95 92 89 87 85 86 86 86 87 87 86 85 83 82 81 80 79 78 77 77 76 77 77 76
99 98 97 97 96 93 92 94 97 101 103 103 102 100 98 99 99 98 97 96 95 93 92 90 89 87 87 87 87 87 88 89 90 90 89 88 86 85 84 82 80 77
108 109 107 106 105 102 98 93 91 90 92 95 97 99 99 101 103 102 101 100 99 99 98 96 94 92 89 87 84 83 85 87 90 94 95 95 95 96 97 96 94 90
93 100 105 109 111 112 109 104 100 96 93 93 93 94 94 95 99 103 104 106 107 107 105 103 101 98 93 89 85 83 83 82 84 86 89 93 96 98 101 103 103 102
60 67 75 83 91 100 104 106 108 108 107 106 102 99 97 95 95 97 100 103 106 107 108 108 108 107 104 98 93 89 87 85 83 81 79 81 83 87 92 97 101 105
33 35 39 44 50 58 67 76 85 91 98 104 106 108 109 106 103 101 100 99 100 101 103 104 104 105 106 104 101 98 95 93 90 87 83 80 77 77 77 80 84 89
24 25 27 28 28 30 33 38 44 50 58 66 73 82 90 94 98 100 102 102 103 105 106 106 106 104 103 101 99 98 97 95 93 90 87 84 81 79 77 75 74 74
24 24 25 26 27 27 27 28 29 30 33 35 39 44 49 55 61 66 73 78 83 89 94 99 104 107 108 106 103 101 98 95 94 91 89 87 84 82 81 79 76 74
26 26 26 26 27 28 28 29 29 30 30 31 32 33 33 35 37 39 42 44 47 51 56 62 69 78 87 94 101 105 105 104 104 100 97 96 93 91 90 87 82 78
28 27 27 27 27 28 29 29 30 30 31 31 32 33 34 34 35 35 36 37 37 37 37 38 40 43 48 55 65 75 83 92 100 104 106 107 103 99 98 96 92 88
29 28 28 28 27 27 28 28 29 30 30 31 31 32 33 33 34 35 35 36 37 37 37 37 37 37 37 38 39 42 47 54 62 72 83 93 98 100 99 98 97 95
31 30 29 28 28 28 28 27 28 29 29 30 30 31 31 31 32 32 33 34 35 36 36 36 37 37 37 38 38 38 38 39 40 43 48 55 64 71 76 80 84 86
32 31 31 30 30 29 28 28 28 28 29 29 30 31 31 31 31 31 31 31 32 33 33 34 35 35 35 36 36 37 37 37 39 40 41 42 44 47 50 53 58 62
24 25 25 27 28 29 29 29 29 28 28 29 29 30 31 31 32 33 33 33 33 33 33 33 33 33 34 34 34 35 35 35 35 36 37 39 41 43 45 46 47 48
15 16 16 17 18 20 21 23 24 25 25 26 26 26 27 28 29 31 32 34 35 36 36 36 37 37 36 36 35 35 35 35 35 35 34 35 35 38 40 42 44 45
16 15 14 14 14 15 15 16 17 18 19 20 21 21 22 22 23 24 25 27 29 30 32 33 35 36 37 38 39 39 38 38 38 37 37 36 35 35 36 36 37 39
17 18 17 17 16 16 15 15 16 16 17 17 18 19 19 20 20 21 21 22 22 23 24 25 26 28 29 31 32 33 34 35 37 37 38 38 38 37 36 36 35 35
12 13 14 15 16 16 16 16 16 16 16 17 17 17 18 18 19 20 20 21 21 21 21 21 22 22 23 24 25 26 26 27 29 31 32 33 34 35 36 37 37 36
7 8 8 9 11 12 13 13 14 15 15 15 15 15 15 16 16 16 17 17 18 18 18 18 18 18 18 19 19 20 21 22 25 26 27 28 29 30 31 33 34 36
6 6 7 7 7 8 9 9 10 11 11 12 12 12 12 13 13 13 13 14 14 14 14 14 14 14 15 15 15 16 16 17 19 21 21 22 23 25 26 27 28 30
6 6 6 7 7 7 8 8 9 9 9 10 10 10 10 10 11 11 11 11 12 12 12 12 12 12 13 13 13 13 13 14 16 16 17 17 17 18 19 20 22 23
6 6 6 6 7 7 7 8 8 9 9 9 9 9 10 10 10 10 10 10 10 10 10 10 10 11 11 11 11 11 11 11 12 13 13 13 13 13 14 14 15 16
6 6 6 6 6 7 7 7 8 9 9 10 10 10 10 10 9 9 9 9 9 9 9 9 9 9 9 9 9 9 9 9 10 10 10 10 10 10 11 11 11 11
6 6 6 6 6 6 7 7 7 8 9 10 10 10 10 10 10 10 10 10 9 9 9 9 9 9 9 10 9 9 9 9 9 9 9 9 9 9 10 10 10 10
6 6 6 6 7 7 7 7 7 8 9 10 10 11 11 11 10 10 10 11 10 10 10 10 10 10 10 10 10 9 9 10 10 10 10 9 10 10 10 10 10 10
5 6 6 6 7 7 7 7 7 7 8 9 10 11 11 11 11 11 11 11 11 11 11 11 11 11 11 10 10 10 10 10 11 11 11 11 12 12 12 12 12 12

ECMWFNIL_250_rhum_141.txt.gz
RH
88 93 100 105 108 106 101 95 90 89 92 96 100 102 104 106 108 107 104 100 95 91 88 84 83 82 83 85 86 86 86 84 81 79 78 77 76 76 76 75 74 75
77 79 83 89 95 101 105 105 101 95 91 90 94 98 102 104 105 105 105 105 105 102 99 95 93 89 85 83 82 83 85 88 90 91 91 90 87 84 82 78 75 73
74 75 77 79 82 86 92 97 101 101 97 92 90 92 96 101 105 106 105 105 106 107 105 104 103 102 98 93 90 86 84 84 87 89 92 95 97 96 94 90 85 81
55 59 63 66 70 73 77 82 89 96 100 100 96 92 91 93 97 102 104 105 107 107 106 106 105 105 104 103 103 102 97 93 90 87 87 90 94 98 99 99 97 95
30 33 36 40 44 49 53 59 65 73 83 93 100 101 99 95 93 95 97 100 103 104 104 105 105 104 103 102 105 108 107 106 102 97 94 92 91 93 95 96 98 100
26 26 26 27 28 30 32 35 38 43 50 60 72 84 94 99 100 100 100 100 100 99 99 100 100 102 103 101 102 104 105 107 107 105 103 100 97 97 96 94 94 94
28 28 28 28 28 28 28 29 29 29 30 32 37 46 57 70 81 89 96 101 103 103 102 99 98 99 99 99 100 101 102 104 105 106 105 104 103 102 102 100 98 96
29 28 28 29 29 29 30 30 31 31 30 29 28 28 30 35 43 52 62 73 84 93 99 102 103 102 101 100 100 100 98 99 101 104 105 106 106 105 104 104 103 103
29 29 29 28 28 28 29 29 30 31 31 32 32 30 29 28 28 30 33 38 46 56 66 76 85 91 95 99 101 100 98 96 96 97 98 101 103 103 104 106 106 106
28 29 29 29 28 27 27 27 28 29 30 31 32 32 32 32 31 30 29 29 29 32 36 41 48 56 64 71 78 82 85 88 89 91 92 95 98 98 100 102 102 104
22 23 24 25 26 26 26 26 26 27 27 28 29 31 32 32 33 32 32 31 31 30 30 30 31 33 36 41 45 50 54 59 63 67 72 77 83 87 91 93 94 97
16 17 17 17 18 19 20 21 22 23 24 24 25 27 29 30 31 32 32 33 33 33 32 32 32 32 31 32 33 34 36 38 39 41 43 46 50 55 60 65 68 72
12 14 15 14 14 13 14 15 16 17 18 19 20 22 23 25 27 29 30 31 32 33 33 33 33 33 33 33 33 33 33 33 34 35 35 35 36 36 37 39 41 43
10 11 12 13 13 12 12 11 11 12 13 14 15 16 17 18 20 22 25 27 29 31 33 34 34 34 34 34 33 33 33 33 34 34 34 35 35 36 36 36 36 36
7 7 8 10 10 11 12 11 11 11 11 11 12 13 13 14 15 16 17 19 21 24 27 29 32 34 35 35 35 35 34 34 34 34 34 34 35 35 36 36 36 36
6 6 6 6 7 8 9 10 11 11 11 12 12 12 12 13 13 13 14 14 15 16 18 20 23 26 29 32 34 35 36 36 36 35 35 35 35 35 36 35 35 35
5 6 6 5 5 6 6 7 8 9 9 10 11 12 13 14 14 14 15 15 15 15 15 15 16 17 19 21 23 26 29 31 34 36 38 38 38 38 37 36 35 35
5 5 5 5 5 5 5 6 6 6 7 8 8 9 10 11 13 14 15 15 16 16 17 17 17 17 17 18 18 18 19 21 24 28 31 34 36 36 36 36 37 37
5 5 5 5 5 5 5 5 6 6 6 6 7 7 7 8 9 10 11 12 12 13 14 15 16 16 17 18 19 19 19 19 21 22 24 25 26 27 29 31 34 35
5 5 5 5 5 5 5 5 6 6 6 6 6 7 7 7 7 8 8 9 9 10 10 11 11 12 13 14 15 17 18 19 22 23 24 23 23 23 24 26 27 29
5 5 5 5 5 5 5 5 5 5 6 6 6 6 7 7 7 7 8 8 8 8 8 8 9 9 9 10 10 11 12 14 16 18 20 21 22 23 25 26 27 27
5 5 5 5 5 5 5 5 5 5 6 6 6 6 6 7 7 7 7 8 8 8 8 8 8 9 9 9 9 9 10 10 10 11 13 14 15 17 19 22 23 24
5 5 5 5 5 6 6 6 6 6 6 6 6 6 6 6 7 7 7 7 7 8 8 8 8 9 9 9 9 10 10 10 10 10 11 11 11 12 13 14 14 15
5 5 5 5 5 5 6 6 6 6 6 6 6 6 6 7 7 7 7 7 7 7 8 8 8 9 9 9 10 10 11 11 11 11 12 12 12 12 11 11 11 11
5 5 5 5 5 5 5 5 5 5 5 6 6 6 6 6 6 7 7 7 7 7 7 8 8 8 8 9 9 10 10 11 12 13 13 13 13 12 12 11 11 11
5 5 5 5 5 5 5 5 5 5 5 5 5 5 6 6 6 6 6 6 7 7 7 7 8 8 8 8 8 9 10 10 11 12 13 13 13 12 12 12 12 11

ECMWFNIL_250_rhum_144.txt.gz
RH
60 59 58 59 60 63 66 68 71 73 76 77 79 79 79 78 78 80 84 90 95 98 99 99 99 98 96 94 92 88 84 81 80 80 79 77 75 73 69 65 62 61
62 64 64 64 64 64 66 68 69 71 72 73 74 75 75 74 74 74 75 79 85 90 93 96 99 100 100 100 99 96 92 87 85 84 83 82 80 79 78 75 72 69
46 50 53 56 59 62 63 65 67 69 72 74 75 76 76 75 74 71 69 70 74 78 82 87 93 96 99 101 103 103 101 97 94 90 87 86 84 83 82 80 79 77
26 28 31 34 37 41 44 48 52 56 60 64 67 71 74 77 79 77 74 72 71 71 71 73 79 85 91 95 99 102 105 105 102 98 95 92 90 89 87 84 81 80
22 21 22 22 23 24 26 28 31 34 37 41 45 49 55 60 67 71 75 77 78 77 74 71 70 72 76 82 87 92 97 102 104 104 102 100 98 96 94 90 88 84
25 25 24 23 23 22 21 22 22 23 24 26 28 30 32 35 40 46 52 59 66 72 76 78 76 74 72 72 75 80 84 90 96 100 104 105 104 102 100 98 96 92
26 27 27 26 27 25 24 23 23 23 23 23 24 25 25 25 26 28 30 34 38 44 52 60 67 73 74 74 74 75 77 80 84 88 94 100 104 105 105 103 101 100
22 24 25 26 27 28 27 25 25 24 24 24 25 26 26 27 27 27 27 27 27 29 31 34 39 46 53 59 64 68 71 74 78 81 85 90 95 101 104 105 104 104
17 18 20 21 23 25 25 25 25 25 25 25 26 26 26 27 29 30 30 30 30 29 29 30 30 31 33 36 41 45 50 56 62 69 75 81 87 92 95 99 101 101
15 15 15 16 18 19 20 20 21 22 23 24 25 26 26 26 26 28 30 31 32 31 31 32 32 32 33 32 32 33 33 36 39 44 51 59 67 75 81 87 92 96
13 13 13 13 15 16 16 16 16 16 18 19 20 22 24 25 25 26 28 29 30 31 31 31 31 32 33 34 34 34 34 34 33 32 33 35 40 46 54 61 70 80
9 9 9 10 10 12 13 13 13 13 14 14 15 16 17 19 21 22 25 27 28 30 31 31 32 31 31 31 32 34 35 36 36 35 34 32 32 31 33 36 41 49
7 7 7 7 7 8 8 9 10 10 11 12 12 13 13 14 15 16 18 20 22 25 27 29 31 32 33 33 33 32 32 33 34 35 36 36 36 35 33 31 31 31
6 6 6 6 6 6 6 6 7 7 7 8 9 9 10 11 12 13 14 15 17 18 20 22 24 27 29 31 33 33 33 33 33 33 34 35 36 37 37 37 35 33
6 5 6 6 5 5 5 5 5 5 6 6 6 7 7 8 8 9 10 11 13 14 16 17 19 20 22 24 26 29 30 32 33 33 33 34 34 36 37 38 38 38
5 5 5 6 5 5 5 5 5 5 5 5 5 6 6 6 6 7 7 8 8 9 11 12 14 16 18 19 20 22 23 25 27 29 31 32 34 35 35 35 36 36
5 5 5 5 5 5 5 5 5 5 5 5 5 5 5 6 6 6 6 6 7 7 7 8 9 10 11 13 15 17 19 20 22 23 25 28 29 31 31 31 32 32
4 5 5 4 5 5 4 5 5 5 5 5 5 5 5 5 6 6 6 6 6 6 6 6 7 7 7 8 9 11 12 15 17 20 22 24 24 25 25 26 27 29
5 5 5 5 5 4 4 4 4 4 5 5 5 6 5 6 6 6 6 6 6 6 6 6 6 6 7 7 7 7 8 9 11 13 16 19 21 22 22 23 25 26
6 6 5 5 5 5 5 5 4 4 4 4 5 5 5 6 6 6 6 6 6 6 6 6 6 6 7 7 7 7 7 7 8 9 10 12 15 18 20 22 24 25
6 6 6 6 5 5 5 5 5 5 5 5 5 5 5 6 6 6 6 6 6 6 6 6 7 7 7 7 7 7 7 7 7 7 8 9 10 12 15 18 21 22
5 5 5 5 5 5 5 5 5 5 5 5 5 5 6 6 6 6 6 6 6 6 6 6 6 7 7 7 7 7 7 7 7 7 8 8 8 9 10 12 14 16
5 5 5 5 5 5 5 5 5 5 5 5 5 5 6 6 6 6 6 6 6 6 6 6 6 6 7 7 7 7 7 7 7 7 7 8 8 8 8 9 10 11
5 5 5 5 5 5 5 5 5 5 6 5 5 6 5 6 6 6 6 6 6 6 6 6 6 6 7 7 7 7 7 8 8 8 8 8 8 8 8 8 9 9
5 5 4 4 4 4 4 5 5 5 6 5 6 6 5 6 6 5 6 6 6 6 6 6 7 6 7 7 7 7 7 7 8 8 8 8 8 8 9 9 9 9
4 5 5 4 4 4 4 5 5 5 5 5 5 6 5 6 6 5 6 6 6 6 6 6 6 6 6 7 6 7 7 7 8 8 7 8 8 8 9 10 10 10